AWE408 KTPA-KPHX

Flight info

Callsign AWE408
Flight time 4h 15m
Altitude 34000
Route DORMR3 FROOT BUNNZ Y290 LEV J86 SPURS/N0465F360 J86 ELP DRRVR PINNG1
Aircraft A320/M-SDE3FGHIRWY/LB1

Departure

Time 2026-05-04 15:53
Airport Tampa International Airport (KTPA)

Arrival

Time 2026-05-04 20:09
Airport Phoenix Sky Harbor International Airport (KPHX)
Time Latitude Longitude Altitude Speed Heading
2026-05-04 15:03 27.97753 -82.53883 41 ft 0 kts 145°
2026-05-04 15:35 27.97788 -82.53910 42 ft 4 kts 154°
2026-05-04 15:35 27.97809 -82.53914 42 ft 4 kts 218°
2026-05-04 15:35 27.97821 -82.53891 43 ft 3 kts 261°
2026-05-04 15:36 27.97828 -82.53840 43 ft 1 kts 261°
2026-05-04 15:41 27.97822 -82.53887 43 ft 13 kts 261°
2026-05-04 15:41 27.97799 -82.53970 44 ft 10 kts 225°
2026-05-04 15:42 27.97715 -82.53981 44 ft 14 kts 179°
2026-05-04 15:42 27.97612 -82.53984 46 ft 19 kts 182°
2026-05-04 15:42 27.97507 -82.53926 42 ft 19 kts 104°
2026-05-04 15:42 27.97442 -82.53798 47 ft 18 kts 122°
2026-05-04 15:43 27.97374 -82.53683 53 ft 18 kts 122°
2026-05-04 15:43 27.97327 -82.53538 49 ft 22 kts 103°
2026-05-04 15:43 27.97314 -82.53354 43 ft 23 kts 90°
2026-05-04 15:43 27.97309 -82.53169 43 ft 24 kts 92°
2026-05-04 15:44 27.97304 -82.53019 42 ft 10 kts 100°
2026-05-04 15:44 27.97250 -82.52992 39 ft 8 kts 179°
2026-05-04 15:44 27.97200 -82.52989 41 ft 6 kts 145°
2026-05-04 15:44 27.97195 -82.52979 40 ft 0 kts 115°
2026-05-04 15:52 27.97193 -82.52973 39 ft 4 kts 114°
2026-05-04 15:52 27.97187 -82.52911 38 ft 8 kts 87°
2026-05-04 15:52 27.97217 -82.52875 37 ft 6 kts 11°
2026-05-04 15:52 27.97224 -82.52875 38 ft 1 kts
2026-05-04 15:53 27.97508 -82.52862 38 ft 80 kts
2026-05-04 15:53 27.98301 -82.52835 37 ft 144 kts
2026-05-04 15:53 27.99435 -82.52787 369 ft 164 kts
2026-05-04 15:53 28.00526 -82.52701 1333 ft 152 kts
2026-05-04 15:54 28.01501 -82.52297 1939 ft 160 kts 46°
2026-05-04 15:54 28.02283 -82.51331 2323 ft 175 kts 40°
2026-05-04 15:54 28.03506 -82.50957 2517 ft 202 kts 353°
2026-05-04 15:54 28.04782 -82.51810 2744 ft 233 kts 309°
2026-05-04 15:55 28.05352 -82.53616 3050 ft 261 kts 271°
2026-05-04 15:55 28.04835 -82.55639 3460 ft 278 kts 235°
2026-05-04 15:55 28.03549 -82.57292 4161 ft 282 kts 221°
2026-05-04 15:55 28.02066 -82.58743 5003 ft 282 kts 219°
2026-05-04 15:56 28.00575 -82.60195 5866 ft 283 kts 221°
2026-05-04 15:56 27.99141 -82.61709 6693 ft 282 kts 224°
2026-05-04 15:56 27.97764 -82.63307 7456 ft 284 kts 226°
2026-05-04 15:56 27.96433 -82.64969 8193 ft 286 kts 229°
2026-05-04 15:57 27.95126 -82.66677 8891 ft 289 kts 229°
2026-05-04 15:57 27.93823 -82.68419 9577 ft 291 kts 230°
2026-05-04 15:57 27.92518 -82.70178 10284 ft 292 kts 229°
2026-05-04 15:57 27.91180 -82.71979 10648 ft 309 kts 229°
2026-05-04 15:58 27.89749 -82.73905 10790 ft 330 kts 230°
2026-05-04 15:58 27.88226 -82.75955 10914 ft 351 kts 230°
2026-05-04 15:58 27.86622 -82.78107 11257 ft 362 kts 231°
2026-05-04 15:58 27.84988 -82.80295 11853 ft 366 kts 231°
2026-05-04 15:59 27.83342 -82.82493 12508 ft 367 kts 231°
2026-05-04 15:59 27.81684 -82.84700 13130 ft 369 kts 231°
2026-05-04 15:59 27.80021 -82.86916 13709 ft 371 kts 231°
2026-05-04 15:59 27.78346 -82.89155 14257 ft 374 kts 231°
2026-05-04 16:00 27.76661 -82.91405 14803 ft 376 kts 231°
2026-05-04 16:00 27.74963 -82.93668 15340 ft 379 kts 231°
2026-05-04 16:00 27.73255 -82.95946 15848 ft 382 kts 232°
2026-05-04 16:00 27.71532 -82.98242 16380 ft 385 kts 232°
2026-05-04 16:01 27.69796 -83.00556 16883 ft 387 kts 232°
2026-05-04 16:01 27.68175 -83.02927 17362 ft 388 kts 239°
2026-05-04 16:01 27.66924 -83.05663 17867 ft 388 kts 250°
2026-05-04 16:01 27.66178 -83.08587 18335 ft 388 kts 261°
2026-05-04 16:02 27.65866 -83.11570 18801 ft 389 kts 265°
2026-05-04 16:02 27.65594 -83.14618 19256 ft 391 kts 265°
2026-05-04 16:02 27.65026 -83.20751 20106 ft 395 kts 264°
2026-05-04 16:03 27.64733 -83.23875 20543 ft 397 kts 264°
2026-05-04 16:03 27.64442 -83.26978 20947 ft 398 kts 264°
2026-05-04 16:03 27.64156 -83.30049 21328 ft 400 kts 264°
2026-05-04 16:03 27.63866 -83.33180 21693 ft 402 kts 264°
2026-05-04 16:04 27.63573 -83.36315 22062 ft 403 kts 264°
2026-05-04 16:04 27.62981 -83.42624 22749 ft 406 kts 265°
2026-05-04 16:04 27.62683 -83.45795 23074 ft 407 kts 265°
2026-05-04 16:05 27.62380 -83.48973 23386 ft 409 kts 264°
2026-05-04 16:05 27.62074 -83.52168 23691 ft 410 kts 265°
2026-05-04 16:05 27.61462 -83.58572 24289 ft 412 kts 265°
2026-05-04 16:06 27.61154 -83.61792 24568 ft 413 kts 265°
2026-05-04 16:06 27.60332 -83.70379 25353 ft 415 kts 265°
2026-05-04 16:07 27.59914 -83.74708 25687 ft 416 kts 265°
2026-05-04 16:07 27.58964 -83.84452 26451 ft 417 kts 265°
2026-05-04 16:08 27.58648 -83.87703 26680 ft 418 kts 265°
2026-05-04 16:08 27.57702 -83.97479 27419 ft 417 kts 265°
2026-05-04 16:09 27.57065 -84.03938 28042 ft 413 kts 265°
2026-05-04 16:09 27.56422 -84.10342 28663 ft 409 kts 265°
2026-05-04 16:10 27.55975 -84.16686 29280 ft 403 kts 274°
2026-05-04 16:11 27.57359 -84.25957 30144 ft 397 kts 280°
2026-05-04 16:11 27.57861 -84.29016 30426 ft 396 kts 280°
2026-05-04 16:12 27.59325 -84.38120 31207 ft 392 kts 280°
2026-05-04 16:12 27.60785 -84.47155 31935 ft 389 kts 280°
2026-05-04 16:13 27.61754 -84.53142 32396 ft 387 kts 280°
2026-05-04 16:13 27.62709 -84.59105 32825 ft 386 kts 280°
2026-05-04 16:14 27.63651 -84.65001 33255 ft 384 kts 280°
2026-05-04 16:14 27.64595 -84.70917 33684 ft 382 kts 280°
2026-05-04 16:15 27.65997 -84.79755 34126 ft 383 kts 280°
2026-05-04 16:16 27.66937 -84.85688 34128 ft 385 kts 280°
2026-05-04 16:17 27.69321 -85.00776 34128 ft 396 kts 279°
2026-05-04 16:18 27.71243 -85.13090 34128 ft 399 kts 279°
2026-05-04 16:19 27.73656 -85.28532 34139 ft 399 kts 279°
2026-05-04 16:20 27.76490 -85.43888 34153 ft 400 kts 282°
2026-05-04 16:22 27.79434 -85.59236 34158 ft 400 kts 281°
2026-05-04 16:23 27.82866 -85.77600 34158 ft 399 kts 281°
2026-05-04 16:25 27.86298 -85.95953 34154 ft 397 kts 281°
2026-05-04 16:26 27.90253 -86.17350 34160 ft 397 kts 281°
2026-05-04 16:28 27.92877 -86.31611 34154 ft 397 kts 281°
2026-05-04 16:29 27.96796 -86.53044 34151 ft 398 kts 281°
2026-05-04 16:31 27.99559 -86.68401 34146 ft 399 kts 281°
2026-05-04 16:32 28.04039 -86.86553 34141 ft 401 kts 287°
2026-05-04 16:33 28.07608 -86.98525 34139 ft 402 kts 287°
2026-05-04 16:34 28.10278 -87.07531 34144 ft 403 kts 287°
2026-05-04 16:35 28.15606 -87.25609 34147 ft 404 kts 287°
2026-05-04 16:36 28.18254 -87.34621 34145 ft 404 kts 287°
2026-05-04 16:37 28.20909 -87.43684 34142 ft 404 kts 287°
2026-05-04 16:38 28.24451 -87.55789 34144 ft 405 kts 287°
2026-05-04 16:39 28.28855 -87.70947 34141 ft 405 kts 287°
2026-05-04 16:40 28.32361 -87.83098 34143 ft 406 kts 287°
2026-05-04 16:41 28.36768 -87.98327 34153 ft 406 kts 287°
2026-05-04 16:43 28.42086 -88.13206 34156 ft 408 kts 292°
2026-05-04 16:43 28.45552 -88.22038 34153 ft 408 kts 292°
2026-05-04 16:45 28.52433 -88.39661 34154 ft 407 kts 292°
2026-05-04 16:46 28.58169 -88.54408 34155 ft 407 kts 292°
2026-05-04 16:47 28.62724 -88.66147 34154 ft 406 kts 292°
2026-05-04 16:48 28.67277 -88.77922 34153 ft 406 kts 292°
2026-05-04 16:49 28.71814 -88.89688 34154 ft 405 kts 292°
2026-05-04 16:50 28.76331 -89.01436 34152 ft 405 kts 292°
2026-05-04 16:51 28.79715 -89.10260 34151 ft 405 kts 292°
2026-05-04 16:52 28.84208 -89.22019 34153 ft 404 kts 292°
2026-05-04 16:53 28.87565 -89.30828 34157 ft 403 kts 292°
2026-05-04 16:54 28.92026 -89.42574 34156 ft 403 kts 292°
2026-05-04 16:55 28.98692 -89.60199 34155 ft 403 kts 292°
2026-05-04 16:56 29.04241 -89.74888 34155 ft 403 kts 292°
2026-05-04 16:57 29.07553 -89.83723 34155 ft 403 kts 292°
2026-05-04 16:58 29.11948 -89.95452 34158 ft 402 kts 292°
2026-05-04 17:00 29.18025 -90.13266 34171 ft 401 kts 282°
2026-05-04 17:01 29.20662 -90.28911 34168 ft 400 kts 283°
2026-05-04 17:02 29.22758 -90.41411 34167 ft 400 kts 283°
2026-05-04 17:03 29.24331 -90.50784 34164 ft 399 kts 283°
2026-05-04 17:03 29.25889 -90.60148 34164 ft 399 kts 283°
2026-05-04 17:04 29.27955 -90.72629 34165 ft 399 kts 283°
2026-05-04 17:05 29.30005 -90.85105 34166 ft 398 kts 283°
2026-05-04 17:06 29.31534 -90.94450 34167 ft 398 kts 283°
2026-05-04 17:07 29.32884 -91.02738 34168 ft 397 kts 283°
2026-05-04 17:07 29.34060 -91.09968 34168 ft 397 kts 284°
2026-05-04 17:08 29.35562 -91.19297 34169 ft 396 kts 284°
2026-05-04 17:09 29.36569 -91.25505 34169 ft 396 kts 284°
2026-05-04 17:09 29.37565 -91.31710 34168 ft 395 kts 284°
2026-05-04 17:10 29.40044 -91.47197 34162 ft 394 kts 284°
2026-05-04 17:11 29.41031 -91.53383 34160 ft 394 kts 284°
2026-05-04 17:12 29.42484 -91.62613 34156 ft 393 kts 284°
2026-05-04 17:13 29.44914 -91.78030 34152 ft 393 kts 284°
2026-05-04 17:14 29.46839 -91.90366 34148 ft 392 kts 285°
2026-05-04 17:15 29.48273 -91.99601 34142 ft 392 kts 285°
2026-05-04 17:16 29.50018 -92.10892 34139 ft 390 kts 285°
2026-05-04 17:17 29.51897 -92.23162 34130 ft 389 kts 285°
2026-05-04 17:18 29.53762 -92.35368 34126 ft 389 kts 285°
2026-05-04 17:19 29.55616 -92.47612 34127 ft 389 kts 285°
2026-05-04 17:20 29.57457 -92.59839 34126 ft 388 kts 285°
2026-05-04 17:20 29.58831 -92.69005 34130 ft 388 kts 285°
2026-05-04 17:21 29.60649 -92.81205 34133 ft 387 kts 285°
2026-05-04 17:22 29.61549 -92.87295 34130 ft 386 kts 285°
2026-05-04 17:23 29.63347 -92.99433 34129 ft 385 kts 285°
2026-05-04 17:24 29.64674 -93.08532 34132 ft 384 kts 285°
2026-05-04 17:25 29.66438 -93.20632 34134 ft 383 kts 285°
2026-05-04 17:26 29.68188 -93.32674 34138 ft 381 kts 285°
2026-05-04 17:27 29.70331 -93.47637 34138 ft 379 kts 285°
2026-05-04 17:28 29.72030 -93.59581 34138 ft 378 kts 285°
2026-05-04 17:29 29.74555 -93.77408 34132 ft 375 kts 285°
2026-05-04 17:31 29.76629 -93.92196 34121 ft 374 kts 285°
2026-05-04 17:32 29.78688 -94.06958 34107 ft 373 kts 285°
2026-05-04 17:33 29.80305 -94.18760 34100 ft 373 kts 285°
2026-05-04 17:34 29.81926 -94.30571 34098 ft 374 kts 285°
2026-05-04 17:35 29.83932 -94.45361 34092 ft 374 kts 285°
2026-05-04 17:36 29.84737 -94.51278 34083 ft 374 kts 284°
2026-05-04 17:36 29.85537 -94.57210 34082 ft 375 kts 284°
2026-05-04 17:37 29.86333 -94.63147 34075 ft 375 kts 284°
2026-05-04 17:37 29.87118 -94.69051 34077 ft 376 kts 284°
2026-05-04 17:38 29.87918 -94.75042 34073 ft 376 kts 284°
2026-05-04 17:38 29.88715 -94.80997 34073 ft 377 kts 284°
2026-05-04 17:39 29.89887 -94.89915 34074 ft 377 kts 284°
2026-05-04 17:39 29.90675 -94.95895 34071 ft 378 kts 284°
2026-05-04 17:40 29.91458 -95.01884 34075 ft 378 kts 284°
2026-05-04 17:40 29.92242 -95.07875 34076 ft 378 kts 284°
2026-05-04 17:41 29.93028 -95.13871 34074 ft 378 kts 284°
2026-05-04 17:41 29.93802 -95.19875 34073 ft 379 kts 283°
2026-05-04 17:42 29.94573 -95.25883 34079 ft 379 kts 283°
2026-05-04 17:42 29.95345 -95.31883 34075 ft 379 kts 283°
2026-05-04 17:43 29.96165 -95.37880 34078 ft 378 kts 284°
2026-05-04 17:43 29.97133 -95.43822 34080 ft 377 kts 285°
2026-05-04 17:44 29.98123 -95.49757 34073 ft 377 kts 285°
2026-05-04 17:44 29.99094 -95.55698 34076 ft 377 kts 285°
2026-05-04 17:45 30.00040 -95.61648 34075 ft 377 kts 284°
2026-05-04 17:45 30.00980 -95.67604 34080 ft 377 kts 284°
2026-05-04 17:46 30.01926 -95.73554 34073 ft 377 kts 284°
2026-05-04 17:46 30.02870 -95.79511 34076 ft 377 kts 284°
2026-05-04 17:47 30.03800 -95.85426 34078 ft 377 kts 284°
2026-05-04 17:47 30.04737 -95.91378 34075 ft 377 kts 284°
2026-05-04 17:48 30.05667 -95.97334 34073 ft 377 kts 284°
2026-05-04 17:48 30.06592 -96.03299 34071 ft 377 kts 284°
2026-05-04 17:49 30.07518 -96.09263 34073 ft 377 kts 284°
2026-05-04 17:49 30.08445 -96.15223 34071 ft 377 kts 284°
2026-05-04 17:50 30.09366 -96.21182 34065 ft 377 kts 284°
2026-05-04 17:50 30.10285 -96.27143 34057 ft 377 kts 284°
2026-05-04 17:51 30.11205 -96.33100 34053 ft 377 kts 284°
2026-05-04 17:51 30.12119 -96.39059 34052 ft 377 kts 284°
2026-05-04 17:52 30.13028 -96.45019 34050 ft 377 kts 284°
2026-05-04 17:52 30.13935 -96.50978 34047 ft 377 kts 284°
2026-05-04 17:53 30.14842 -96.56940 34046 ft 377 kts 284°
2026-05-04 17:53 30.15743 -96.62902 34045 ft 377 kts 284°
2026-05-04 17:54 30.16640 -96.68857 34048 ft 377 kts 284°
2026-05-04 17:54 30.17539 -96.74830 34052 ft 376 kts 284°
2026-05-04 17:55 30.18432 -96.80788 34056 ft 376 kts 284°
2026-05-04 17:55 30.19325 -96.86754 34056 ft 377 kts 284°
2026-05-04 17:56 30.20213 -96.92725 34062 ft 377 kts 284°
2026-05-04 17:56 30.21101 -96.98698 34065 ft 377 kts 284°
2026-05-04 17:57 30.21987 -97.04683 34068 ft 378 kts 284°
2026-05-04 17:57 30.22870 -97.10670 34068 ft 378 kts 284°
2026-05-04 17:58 30.23751 -97.16669 34067 ft 378 kts 284°
2026-05-04 17:58 30.24626 -97.22672 34065 ft 379 kts 283°
2026-05-04 17:59 30.25506 -97.28688 34060 ft 379 kts 283°
2026-05-04 18:00 30.26817 -97.37673 34052 ft 380 kts 283°
2026-05-04 18:00 30.27685 -97.43706 34047 ft 380 kts 283°
2026-05-04 18:01 30.28551 -97.49733 34034 ft 380 kts 283°
2026-05-04 18:01 30.29420 -97.55775 34026 ft 381 kts 283°
2026-05-04 18:02 30.30721 -97.64861 34021 ft 382 kts 283°
2026-05-04 18:02 30.31437 -97.69926 34013 ft 382 kts 283°
2026-05-04 18:03 30.32294 -97.75968 34014 ft 382 kts 283°
2026-05-04 18:03 30.33160 -97.82047 34014 ft 383 kts 283°
2026-05-04 18:04 30.34024 -97.88132 34016 ft 383 kts 283°
2026-05-04 18:05 30.35314 -97.97269 34023 ft 384 kts 283°
2026-05-04 18:05 30.36163 -98.03374 34021 ft 384 kts 283°
2026-05-04 18:06 30.37436 -98.12546 34043 ft 385 kts 283°
2026-05-04 18:06 30.38283 -98.18661 34050 ft 385 kts 283°
2026-05-04 18:07 30.39129 -98.24781 34051 ft 385 kts 283°
2026-05-04 18:07 30.39972 -98.30896 34048 ft 384 kts 283°
2026-05-04 18:08 30.40813 -98.37008 34032 ft 384 kts 283°
2026-05-04 18:08 30.41652 -98.43106 34025 ft 383 kts 283°
2026-05-04 18:09 30.43301 -98.55317 34031 ft 383 kts 282°
2026-05-04 18:10 30.44128 -98.61420 34029 ft 383 kts 282°
2026-05-04 18:10 30.44954 -98.67519 34039 ft 383 kts 282°
2026-05-04 18:11 30.45780 -98.73619 34034 ft 383 kts 282°
2026-05-04 18:11 30.46600 -98.79718 34037 ft 383 kts 282°
2026-05-04 18:12 30.47411 -98.85814 34038 ft 383 kts 282°
2026-05-04 18:12 30.48214 -98.91912 34036 ft 382 kts 282°
2026-05-04 18:13 30.49022 -98.97994 34035 ft 382 kts 282°
2026-05-04 18:14 30.50235 -99.07143 34018 ft 383 kts 282°
2026-05-04 18:14 30.51036 -99.13264 34010 ft 384 kts 282°
2026-05-04 18:15 30.52622 -99.25536 34006 ft 385 kts 281°
2026-05-04 18:16 30.53419 -99.31684 34008 ft 386 kts 281°
2026-05-04 18:16 30.54217 -99.37836 34005 ft 386 kts 281°
2026-05-04 18:17 30.55413 -99.47087 34008 ft 387 kts 281°
2026-05-04 18:18 30.56600 -99.56355 34007 ft 387 kts 281°
2026-05-04 18:18 30.57387 -99.62540 34003 ft 388 kts 281°
2026-05-04 18:19 30.58556 -99.71837 34005 ft 389 kts 281°
2026-05-04 18:19 30.59333 -99.78042 34007 ft 388 kts 281°
2026-05-04 18:20 30.60117 -99.84243 34008 ft 388 kts 281°
2026-05-04 18:20 30.60890 -99.90447 34006 ft 388 kts 281°
2026-05-04 18:21 30.61650 -99.96609 34004 ft 389 kts 281°
2026-05-04 18:21 30.62414 -100.02821 34009 ft 389 kts 281°
2026-05-04 18:22 30.63180 -100.09035 34008 ft 389 kts 281°
2026-05-04 18:22 30.63940 -100.15251 34008 ft 389 kts 281°
2026-05-04 18:23 30.64701 -100.21473 34009 ft 389 kts 281°
2026-05-04 18:23 30.65457 -100.27692 34015 ft 389 kts 281°
2026-05-04 18:24 30.66204 -100.33924 34027 ft 389 kts 281°
2026-05-04 18:24 30.66949 -100.40146 34038 ft 388 kts 280°
2026-05-04 18:25 30.67697 -100.46360 34046 ft 388 kts 280°
2026-05-04 18:25 30.68440 -100.52576 34049 ft 388 kts 280°
2026-05-04 18:26 30.69176 -100.58782 34049 ft 388 kts 280°
2026-05-04 18:26 30.69907 -100.64995 34052 ft 388 kts 280°
2026-05-04 18:27 30.70631 -100.71208 34054 ft 388 kts 280°
2026-05-04 18:27 30.71361 -100.77422 34053 ft 388 kts 280°
2026-05-04 18:28 30.72089 -100.83638 34051 ft 388 kts 280°
2026-05-04 18:28 30.72811 -100.89849 34046 ft 388 kts 280°
2026-05-04 18:29 30.73536 -100.96071 34047 ft 388 kts 280°
2026-05-04 18:29 30.74255 -101.02288 34046 ft 388 kts 280°
2026-05-04 18:30 30.75328 -101.11622 34045 ft 388 kts 279°
2026-05-04 18:31 30.76036 -101.17840 34046 ft 388 kts 279°
2026-05-04 18:31 30.76737 -101.24057 34033 ft 388 kts 279°
2026-05-04 18:32 30.77437 -101.30269 34042 ft 387 kts 279°
2026-05-04 18:32 30.78145 -101.36476 34037 ft 387 kts 279°
2026-05-04 18:33 30.78836 -101.42644 34034 ft 387 kts 279°
2026-05-04 18:33 30.79528 -101.48892 34020 ft 388 kts 279°
2026-05-04 18:34 30.80212 -101.55078 34027 ft 388 kts 279°
2026-05-04 18:34 30.80905 -101.61304 34030 ft 388 kts 279°
2026-05-04 18:35 30.81595 -101.67533 34024 ft 388 kts 279°
2026-05-04 18:35 30.82279 -101.73767 34023 ft 388 kts 279°
2026-05-04 18:36 30.82953 -101.79998 34017 ft 389 kts 279°
2026-05-04 18:36 30.83629 -101.86241 34021 ft 389 kts 279°
2026-05-04 18:37 30.84306 -101.92477 34025 ft 389 kts 279°
2026-05-04 18:37 30.84985 -101.98715 34019 ft 388 kts 279°
2026-05-04 18:38 30.85652 -102.04947 34023 ft 388 kts 278°
2026-05-04 18:38 30.86319 -102.11182 34018 ft 388 kts 278°
2026-05-04 18:39 30.86979 -102.17415 34013 ft 388 kts 278°
2026-05-04 18:39 30.87633 -102.23641 34008 ft 388 kts 278°
2026-05-04 18:40 30.88291 -102.29876 34008 ft 387 kts 278°
2026-05-04 18:40 30.88942 -102.36100 34005 ft 388 kts 278°
2026-05-04 18:41 30.89591 -102.42339 34005 ft 388 kts 278°
2026-05-04 18:41 30.90241 -102.48579 34005 ft 388 kts 278°
2026-05-04 18:42 30.90885 -102.54814 34007 ft 388 kts 278°
2026-05-04 18:42 30.91530 -102.61058 34010 ft 388 kts 278°
2026-05-04 18:43 30.92163 -102.67263 34015 ft 388 kts 278°
2026-05-04 18:43 30.92793 -102.73507 34014 ft 388 kts 278°
2026-05-04 18:44 30.93428 -102.79745 34018 ft 388 kts 278°
2026-05-04 18:44 30.94061 -102.85998 34018 ft 388 kts 278°
2026-05-04 18:45 30.94684 -102.92243 34018 ft 389 kts 278°
2026-05-04 18:45 30.95474 -102.98464 34014 ft 388 kts 286°
2026-05-04 18:46 30.97118 -103.04453 34015 ft 388 kts 287°
2026-05-04 18:46 30.98769 -103.10439 34016 ft 388 kts 287°
2026-05-04 18:47 31.00143 -103.15417 34016 ft 388 kts 287°
2026-05-04 18:47 31.02066 -103.22414 34018 ft 388 kts 287°
2026-05-04 18:48 31.03703 -103.28411 34014 ft 388 kts 287°
2026-05-04 18:48 31.05063 -103.33394 34015 ft 388 kts 287°
2026-05-04 18:49 31.06707 -103.39398 34015 ft 388 kts 286°
2026-05-04 18:49 31.08339 -103.45395 34015 ft 388 kts 286°
2026-05-04 18:50 31.09973 -103.51398 34011 ft 388 kts 286°
2026-05-04 18:50 31.11601 -103.57400 34008 ft 388 kts 286°
2026-05-04 18:51 31.13227 -103.63394 34009 ft 387 kts 286°
2026-05-04 18:51 31.14848 -103.69383 34005 ft 387 kts 286°
2026-05-04 18:52 31.16447 -103.75334 34006 ft 387 kts 286°
2026-05-04 18:52 31.18068 -103.81355 34014 ft 386 kts 286°
2026-05-04 18:53 31.19669 -103.87304 34020 ft 386 kts 286°
2026-05-04 18:53 31.21269 -103.93295 34023 ft 386 kts 286°
2026-05-04 18:54 31.22870 -103.99284 34028 ft 386 kts 286°
2026-05-04 18:54 31.24468 -104.05281 34029 ft 387 kts 285°
2026-05-04 18:55 31.26067 -104.11287 34026 ft 387 kts 285°
2026-05-04 18:55 31.28465 -104.20307 34021 ft 388 kts 285°
2026-05-04 18:56 31.30058 -104.26327 34028 ft 387 kts 285°
2026-05-04 18:56 31.31648 -104.32345 34024 ft 387 kts 285°
2026-05-04 18:57 31.33235 -104.38352 34033 ft 387 kts 285°
2026-05-04 18:57 31.34819 -104.44368 34051 ft 386 kts 285°
2026-05-04 18:58 31.36396 -104.50384 34046 ft 387 kts 285°
2026-05-04 18:58 31.37974 -104.56406 34049 ft 387 kts 285°
2026-05-04 18:59 31.39552 -104.62419 34047 ft 387 kts 285°
2026-05-04 18:59 31.41132 -104.68454 34033 ft 387 kts 285°
2026-05-04 19:00 31.42706 -104.74492 34008 ft 388 kts 285°
2026-05-04 19:00 31.44271 -104.80538 34007 ft 388 kts 285°
2026-05-04 19:01 31.45838 -104.86591 34004 ft 389 kts 285°
2026-05-04 19:01 31.47414 -104.92671 34034 ft 390 kts 285°
2026-05-04 19:02 31.48980 -104.98749 34029 ft 390 kts 285°
2026-05-04 19:02 31.50543 -105.04832 34023 ft 390 kts 285°
2026-05-04 19:03 31.52108 -105.10910 34020 ft 390 kts 285°
2026-05-04 19:03 31.53677 -105.16993 34025 ft 390 kts 285°
2026-05-04 19:04 31.55233 -105.23076 34024 ft 390 kts 284°
2026-05-04 19:04 31.56787 -105.29170 34032 ft 390 kts 284°
2026-05-04 19:05 31.58334 -105.35259 34036 ft 390 kts 284°
2026-05-04 19:05 31.59877 -105.41324 34047 ft 391 kts 284°
2026-05-04 19:06 31.61434 -105.47434 34047 ft 391 kts 284°
2026-05-04 19:06 31.62982 -105.53545 34047 ft 390 kts 284°
2026-05-04 19:07 31.64517 -105.59657 34054 ft 390 kts 284°
2026-05-04 19:07 31.66053 -105.65772 34058 ft 391 kts 284°
2026-05-04 19:08 31.67597 -105.71878 34059 ft 390 kts 284°
2026-05-04 19:08 31.69138 -105.77993 34058 ft 390 kts 284°
2026-05-04 19:09 31.70667 -105.84095 34056 ft 390 kts 284°
2026-05-04 19:09 31.72192 -105.90192 34052 ft 389 kts 284°
2026-05-04 19:10 31.73709 -105.96291 34051 ft 388 kts 284°
2026-05-04 19:10 31.75219 -106.02382 34052 ft 388 kts 284°
2026-05-04 19:11 31.76724 -106.08472 34053 ft 388 kts 284°
2026-05-04 19:11 31.78224 -106.14519 34051 ft 388 kts 284°
2026-05-04 19:12 31.80482 -106.23654 34053 ft 388 kts 284°
2026-05-04 19:13 31.81814 -106.29786 34055 ft 387 kts 278°
2026-05-04 19:13 31.82636 -106.36041 34050 ft 387 kts 278°
2026-05-04 19:14 31.83453 -106.42304 34046 ft 388 kts 278°
2026-05-04 19:14 31.84264 -106.48574 34047 ft 387 kts 278°
2026-05-04 19:15 31.85080 -106.54839 34047 ft 388 kts 278°
2026-05-04 19:15 31.85890 -106.61106 34052 ft 388 kts 277°
2026-05-04 19:16 31.86691 -106.67377 34059 ft 388 kts 277°
2026-05-04 19:16 31.87501 -106.73650 34065 ft 388 kts 278°
2026-05-04 19:17 31.88306 -106.79926 34069 ft 388 kts 277°
2026-05-04 19:17 31.89104 -106.86209 34072 ft 388 kts 277°
2026-05-04 19:18 31.89898 -106.92474 34073 ft 387 kts 277°
2026-05-04 19:18 31.90687 -106.98738 34078 ft 387 kts 277°
2026-05-04 19:19 31.91474 -107.05000 34077 ft 387 kts 277°
2026-05-04 19:19 31.92253 -107.11263 34079 ft 387 kts 277°
2026-05-04 19:20 31.93035 -107.17522 34082 ft 386 kts 277°
2026-05-04 19:20 31.93816 -107.23779 34084 ft 386 kts 277°
2026-05-04 19:21 31.94586 -107.29984 34088 ft 385 kts 277°
2026-05-04 19:21 31.95354 -107.36225 34085 ft 385 kts 277°
2026-05-04 19:22 31.96117 -107.42455 34086 ft 384 kts 277°
2026-05-04 19:22 31.96875 -107.48684 34092 ft 384 kts 277°
2026-05-04 19:23 31.97630 -107.54901 34089 ft 383 kts 277°
2026-05-04 19:23 31.98380 -107.61115 34096 ft 383 kts 277°
2026-05-04 19:24 31.99133 -107.67327 34094 ft 383 kts 277°
2026-05-04 19:24 31.99878 -107.73530 34090 ft 382 kts 277°
2026-05-04 19:25 32.00618 -107.79728 34099 ft 382 kts 277°
2026-05-04 19:25 32.01356 -107.85922 34100 ft 382 kts 277°
2026-05-04 19:26 32.02088 -107.92113 34098 ft 381 kts 276°
2026-05-04 19:26 32.02817 -107.98292 34104 ft 381 kts 277°
2026-05-04 19:27 32.03546 -108.04470 34120 ft 381 kts 276°
2026-05-04 19:27 32.04268 -108.10651 34109 ft 381 kts 276°
2026-05-04 19:28 32.04991 -108.16831 34107 ft 380 kts 276°
2026-05-04 19:28 32.05706 -108.23011 34100 ft 380 kts 276°
2026-05-04 19:29 32.06420 -108.29190 34091 ft 380 kts 276°
2026-05-04 19:29 32.07133 -108.35362 34096 ft 380 kts 276°
2026-05-04 19:30 32.07843 -108.41552 34096 ft 381 kts 276°
2026-05-04 19:30 32.08541 -108.47691 34093 ft 381 kts 276°
2026-05-04 19:31 32.09237 -108.53868 34087 ft 380 kts 276°
2026-05-04 19:31 32.09938 -108.60054 34091 ft 380 kts 276°
2026-05-04 19:32 32.10641 -108.66225 34088 ft 380 kts 276°
2026-05-04 19:32 32.11338 -108.72415 34085 ft 380 kts 276°
2026-05-04 19:33 32.12026 -108.78603 34084 ft 381 kts 275°
2026-05-04 19:33 32.12711 -108.84800 34081 ft 381 kts 275°
2026-05-04 19:34 32.13400 -108.90996 34080 ft 381 kts 275°
2026-05-04 19:34 32.14080 -108.97198 34077 ft 381 kts 275°
2026-05-04 19:35 32.14757 -109.03397 34076 ft 381 kts 275°
2026-05-04 19:35 32.15434 -109.09609 34077 ft 382 kts 275°
2026-05-04 19:36 32.15995 -109.14769 34082 ft 382 kts 275°
2026-05-04 19:36 32.16785 -109.22044 34080 ft 382 kts 274°
2026-05-04 19:37 32.17336 -109.27220 34076 ft 383 kts 274°
2026-05-04 19:37 32.18457 -109.33392 34078 ft 386 kts 280°
2026-05-04 19:38 32.19767 -109.39542 34079 ft 387 kts 279°
2026-05-04 19:38 32.21072 -109.45708 34076 ft 387 kts 279°
2026-05-04 19:39 32.22374 -109.51882 34078 ft 388 kts 279°
2026-05-04 19:39 32.23679 -109.58064 34080 ft 388 kts 279°
2026-05-04 19:40 32.24990 -109.64264 34081 ft 390 kts 279°
2026-05-04 19:40 32.26295 -109.70473 34076 ft 390 kts 279°
2026-05-04 19:41 32.27600 -109.76699 34082 ft 390 kts 279°
2026-05-04 19:41 32.28901 -109.82922 34082 ft 390 kts 279°
2026-05-04 19:42 32.30202 -109.89154 34092 ft 391 kts 279°
2026-05-04 19:42 32.31490 -109.95394 34092 ft 391 kts 279°
2026-05-04 19:43 32.32777 -110.01632 34088 ft 391 kts 279°
2026-05-04 19:43 32.34061 -110.07836 34085 ft 391 kts 279°
2026-05-04 19:44 32.35354 -110.14087 34081 ft 391 kts 279°
2026-05-04 19:44 32.36641 -110.20343 34082 ft 391 kts 278°
2026-05-04 19:45 32.37926 -110.26602 34081 ft 391 kts 278°
2026-05-04 19:45 32.39199 -110.32853 34077 ft 391 kts 278°
2026-05-04 19:45 32.39836 -110.35977 33839 ft 389 kts 278°
2026-05-04 19:46 32.40465 -110.39047 33535 ft 381 kts 278°
2026-05-04 19:46 32.41084 -110.42083 33276 ft 380 kts 278°
2026-05-04 19:46 32.41702 -110.45119 33020 ft 380 kts 278°
2026-05-04 19:46 32.42320 -110.48157 32269 ft 380 kts 278°
2026-05-04 19:47 32.42937 -110.51202 31395 ft 380 kts 278°
2026-05-04 19:47 32.43549 -110.54233 30593 ft 379 kts 278°
2026-05-04 19:47 32.44161 -110.57268 29703 ft 379 kts 278°
2026-05-04 19:47 32.44775 -110.60312 28740 ft 382 kts 278°
2026-05-04 19:48 32.45390 -110.63362 28078 ft 378 kts 278°
2026-05-04 19:48 32.45993 -110.66340 27811 ft 366 kts 278°
2026-05-04 19:48 32.46599 -110.69247 27561 ft 362 kts 282°
2026-05-04 19:48 32.47563 -110.72018 27334 ft 368 kts 291°
2026-05-04 19:49 32.48959 -110.74588 27079 ft 371 kts 296°
2026-05-04 19:49 32.50412 -110.77114 26843 ft 373 kts 296°
2026-05-04 19:49 32.51878 -110.79664 26532 ft 374 kts 296°
2026-05-04 19:49 32.53333 -110.82198 26106 ft 372 kts 296°
2026-05-04 19:50 32.54783 -110.84730 25626 ft 371 kts 296°
2026-05-04 19:50 32.56225 -110.87256 25194 ft 369 kts 296°
2026-05-04 19:50 32.57657 -110.89768 24734 ft 368 kts 296°
2026-05-04 19:50 32.59085 -110.92275 24288 ft 367 kts 296°
2026-05-04 19:51 32.60514 -110.94783 23836 ft 366 kts 296°
2026-05-04 19:51 32.61937 -110.97282 23384 ft 365 kts 296°
2026-05-04 19:51 32.63360 -110.99773 22943 ft 363 kts 296°
2026-05-04 19:51 32.64768 -111.02240 22498 ft 360 kts 296°
2026-05-04 19:52 32.66169 -111.04697 22061 ft 358 kts 296°
2026-05-04 19:52 32.67558 -111.07136 21628 ft 356 kts 296°
2026-05-04 19:52 32.68919 -111.09530 21200 ft 354 kts 297°
2026-05-04 19:52 32.70309 -111.11976 20818 ft 349 kts 296°
2026-05-04 19:53 32.71633 -111.14302 20533 ft 341 kts 297°
2026-05-04 19:53 32.72959 -111.16632 20041 ft 341 kts 297°
2026-05-04 19:53 32.74322 -111.19036 19538 ft 357 kts 297°
2026-05-04 19:53 32.75689 -111.21456 19309 ft 347 kts 297°
2026-05-04 19:54 32.77015 -111.23793 19087 ft 337 kts 297°
2026-05-04 19:54 32.78315 -111.26087 18659 ft 333 kts 297°
2026-05-04 19:54 32.79601 -111.28368 18211 ft 331 kts 297°
2026-05-04 19:54 32.80875 -111.30633 17763 ft 329 kts 297°
2026-05-04 19:55 32.82141 -111.32885 17305 ft 327 kts 297°
2026-05-04 19:55 32.83402 -111.35120 16843 ft 325 kts 298°
2026-05-04 19:55 32.84660 -111.37348 16345 ft 325 kts 298°
2026-05-04 19:55 32.85919 -111.39575 15951 ft 323 kts 298°
2026-05-04 19:56 32.87171 -111.41789 15495 ft 322 kts 298°
2026-05-04 19:56 32.88410 -111.43991 15113 ft 318 kts 298°
2026-05-04 19:56 32.89617 -111.46138 14989 ft 307 kts 298°
2026-05-04 19:56 32.90949 -111.48091 14836 ft 305 kts 310°
2026-05-04 19:57 32.92682 -111.49582 14507 ft 312 kts 326°
2026-05-04 19:57 32.94700 -111.50609 14072 ft 317 kts 331°
2026-05-04 19:57 32.96703 -111.51570 13674 ft 318 kts 331°
2026-05-04 19:57 32.98736 -111.52547 13387 ft 313 kts 331°
2026-05-04 19:58 33.00753 -111.53524 12997 ft 313 kts 331°
2026-05-04 19:58 33.02766 -111.54505 12649 ft 310 kts 330°
2026-05-04 19:58 33.04726 -111.55457 12505 ft 297 kts 330°
2026-05-04 19:58 33.06606 -111.56367 12112 ft 288 kts 330°
2026-05-04 19:59 33.08448 -111.57263 11686 ft 282 kts 330°
2026-05-04 19:59 33.10257 -111.58152 11298 ft 282 kts 330°
2026-05-04 19:59 33.12075 -111.59057 10883 ft 284 kts 332°
2026-05-04 19:59 33.13881 -111.59956 10473 ft 286 kts 332°
2026-05-04 20:00 33.15734 -111.60878 10119 ft 284 kts 333°
2026-05-04 20:00 33.17552 -111.61779 9811 ft 281 kts 333°
2026-05-04 20:00 33.19327 -111.62659 9513 ft 279 kts 334°
2026-05-04 20:00 33.21110 -111.63541 9402 ft 267 kts 334°
2026-05-04 20:01 33.22772 -111.64359 9313 ft 258 kts 333°
2026-05-04 20:01 33.24411 -111.65237 8995 ft 258 kts 331°
2026-05-04 20:01 33.26024 -111.66174 8635 ft 257 kts 330°
2026-05-04 20:01 33.27623 -111.67127 8281 ft 256 kts 330°
2026-05-04 20:02 33.29217 -111.68080 7932 ft 255 kts 330°
2026-05-04 20:02 33.30799 -111.69020 7582 ft 254 kts 331°
2026-05-04 20:02 33.32378 -111.69950 7247 ft 252 kts 331°
2026-05-04 20:02 33.33938 -111.70865 6968 ft 248 kts 331°
2026-05-04 20:03 33.35477 -111.71769 6649 ft 245 kts 331°
2026-05-04 20:03 33.37006 -111.72666 6310 ft 244 kts 332°
2026-05-04 20:03 33.38526 -111.73557 5977 ft 243 kts 331°
2026-05-04 20:03 33.40005 -111.74532 5566 ft 244 kts 319°
2026-05-04 20:04 33.41130 -111.76030 5138 ft 242 kts 300°
2026-05-04 20:04 33.42054 -111.77714 4765 ft 241 kts 301°
2026-05-04 20:04 33.42963 -111.79341 4419 ft 229 kts 301°
2026-05-04 20:04 33.43784 -111.80909 4117 ft 215 kts 289°
2026-05-04 20:05 33.44058 -111.82589 3869 ft 199 kts 266°
2026-05-04 20:05 33.44056 -111.84184 3610 ft 184 kts 267°
2026-05-04 20:05 33.44061 -111.85651 3387 ft 166 kts 267°
2026-05-04 20:05 33.44066 -111.86968 3153 ft 151 kts 266°
2026-05-04 20:06 33.44072 -111.88200 2946 ft 145 kts 266°
2026-05-04 20:06 33.44078 -111.89391 2752 ft 142 kts 267°
2026-05-04 20:06 33.44084 -111.90562 2567 ft 140 kts 269°
2026-05-04 20:06 33.44093 -111.91723 2410 ft 140 kts 270°
2026-05-04 20:07 33.44096 -111.92885 2192 ft 140 kts 271°
2026-05-04 20:07 33.44096 -111.94049 1977 ft 139 kts 271°
2026-05-04 20:07 33.44096 -111.95213 1813 ft 140 kts 272°
2026-05-04 20:07 33.44095 -111.96378 1622 ft 139 kts 271°
2026-05-04 20:08 33.44092 -111.97540 1453 ft 140 kts 270°
2026-05-04 20:08 33.44086 -111.98702 1251 ft 139 kts 271°
2026-05-04 20:08 33.44085 -111.99837 1138 ft 127 kts 271°
2026-05-04 20:08 33.44085 -112.00723 1129 ft 82 kts 270°
2026-05-04 20:09 33.44085 -112.01197 1131 ft 33 kts 270°
2026-05-04 20:09 33.44046 -112.01349 1132 ft 15 kts 217°
2026-05-04 20:09 33.43973 -112.01319 1125 ft 12 kts 103°
2026-05-04 20:09 33.43973 -112.01229 1119 ft 10 kts 90°
2026-05-04 20:10 33.43973 -112.01148 1123 ft 12 kts 89°
2026-05-04 20:10 33.43973 -112.01013 1122 ft 18 kts 89°
2026-05-04 20:10 33.43974 -112.00854 1123 ft 20 kts 90°
2026-05-04 20:10 33.43974 -112.00685 1121 ft 20 kts 89°
2026-05-04 20:11 33.43975 -112.00509 1123 ft 22 kts 90°
2026-05-04 20:11 33.43975 -112.00325 1124 ft 23 kts 90°
2026-05-04 20:11 33.43973 -112.00131 1127 ft 24 kts 91°
2026-05-04 20:11 33.43972 -111.99935 1120 ft 22 kts 90°
2026-05-04 20:12 33.43974 -111.99751 1120 ft 21 kts 90°
2026-05-04 20:12 33.43973 -111.99609 1128 ft 15 kts 90°
2026-05-04 20:12 33.43917 -111.99565 1120 ft 11 kts 199°
2026-05-04 20:12 33.43859 -111.99578 1119 ft 6 kts 179°
2026-05-04 20:13 33.43827 -111.99594 1114 ft 5 kts 233°
2026-05-04 20:13 33.43817 -111.99622 1125 ft 2 kts 245°
2026-05-04 20:13 33.43814 -111.99631 1125 ft 0 kts 243°